Regional Weather Roundup
Issued by NWS

Home | Current Version | Previous Version | Graphics & Text | Print | Product List | Glossary On
Versions: 1 2 3 4 5 6 7 8 9 10 11 12 13 14 15 16 17 18 19 20 21 22 23 24 25 26 27 28 29 30 31 32 33 34 35 36 37 38 39 40 41 42 43 44 45 46 47 48 49 50
000
ASUS43 KLSX 230407
RWRMO

WEATHER SUMMARY FOR MISSOURI
NATIONAL WEATHER SERVICE SPRINGFIELD MO
1100 PM CDT SAT JUL 22 2017

NOTE: "FAIR" INDICATES FEW OR NO CLOUDS BELOW 12,000 FEET WITH NO
       SIGNIFICANT WEATHER AND/OR OBSTRUCTIONS TO VISIBILITY.
       CURRENT SKY AND/OR WEATHER CONDITIONS ARE NOT AVAILABLE FOR
       CHILLICOTHE AND FARMINGTON.

MOZ001>031-035>038-043-044-053-054-230500-
...NORTHERN AND WESTERN MISSOURI...

CITY           SKY/WX    TMP DP  RH WIND       PRES   REMARKS
KANSAS CTY INT CLOUDY    71  68  90 S9G22     29.97R THUNDER
KANSAS C DTWN  TSTM      72  66  81 E8        29.96F
LEE`S SUMMIT   TSTM      70  69  97 VRB6      30.02R FOG
ST JOSEPH      CLOUDY    82  76  81 W8        29.92R
CHILLICOTHE      N/A     83  76  79 VRB6      29.87R HX  91
KIRKSVILLE     CLOUDY    81  74  79 N9        29.88R

$$
MOZ066>068-077>081-088>096-101>105-230500-
...SOUTHWEST MISSOURI...

CITY           SKY/WX    TMP DP  RH WIND       PRES   REMARKS
SPRINGFIELD    CLEAR     84  74  71 S8        29.90R HX  91
JOPLIN         CLEAR     87  74  64 S10       29.88R HX  95
BRANSON        CLEAR     82  68  61 S5        29.94S

$$
MOZ032>034-039>042-045>050-055>058-069>072-230500-
...CENTRAL MISSOURI...

CITY           SKY/WX    TMP DP  RH WIND       PRES   REMARKS
COLUMBIA       MOCLDY    83  78  85 CALM      29.84R HX  93
JEFFERSON CITY MOCLDY    87  79  76 CALM      29.82R HX 101
ROLLA          PTCLDY    83  73  72 SW7       29.87R
SEDALIA        CLOUDY    89  78  70 W3        29.85R HX 103
WHITEMAN AFB   CLOUDY    88  79  74 SW7       29.83  THUNDER HX 103
WARRENSBURG    CLOUDY    88  75  66 W13G18    29.85R THUNDER HX  97
OSAGE BEACH    CLEAR     87  73  62 S6        29.86S HX  94

$$
MOZ051-052-059>065-230500-
...EAST CENTRAL MISSOURI...

CITY           SKY/WX    TMP DP  RH WIND       PRES   REMARKS
ST LOUIS INTL  CLOUDY    92  72  51 SW12      29.82R THUNDER HX  99
SPIRIT OF STL  PTCLDY    77  73  87 SW3       29.80R THUNDER
ST CHARLES     CLOUDY    88  78  72 NE5       29.78R HX 101

$$
MOZ072>076-082>087-097>100-106>115-230500-
...SOUTH CENTRAL AND SOUTHEAST MISSOURI...

CITY           SKY/WX    TMP DP  RH WIND       PRES   REMARKS
CAPE GIRARDEAU CLEAR     84  75  74 S10       29.85S HX  92
FARMINGTON     CLEAR     85  73  67 SW10      29.87S HX  91
POPLAR BLUFF   CLEAR     82  77  84 S7        29.87S HX  90
WEST PLAINS    CLEAR     82  72  71 SW7       29.93S

$$



USA.gov is the U.S. government's official web portal to all federal, state and local government web resources and services.